DW1256 Weather Reports


Display with metric or nautical units.
time (UTC)temp
F
wind
direction
speed
MPH
gust
MPH
rain 1hr
in
rain 24hr
in
rain mn
in
humidity
%
barometer
mb
20260903023033 83 154 1.0 6.0 0.00 0.00 0.00 62 1012.8
20260903022528 83 186 1.0 5.0 0.00 0.00 0.00 62 1012.8
20260903022022 83 188 1.0 5.0 0.00 0.00 0.00 62 1012.8
20260903021517 83 148 1.0 4.0 0.00 0.00 0.00 62 1012.7
20260903021010 83 198 1.0 4.0 0.00 0.00 0.00 62 1012.7
20260903020503 84 167 1.0 4.0 0.00 0.00 0.00 62 1012.7
20260903020001 84 173 0.0 4.0 0.00 0.00 0.00 63 1012.8
20260903015452 84 148 1.0 4.0 0.00 0.00 0.00 63 1012.7
20260903014954 84 174 1.0 6.0 0.00 0.00 0.00 63 1012.7
20260903014448 84 183 1.0 6.0 0.00 0.00 0.00 63 1012.7
20260903013949 84 173 2.0 6.0 0.00 0.00 0.00 63 1012.7
20260903013453 85 193 2.0 5.0 0.00 0.00 0.00 63 1012.6
20260903012948 85 163 2.0 5.0 0.00 0.00 0.00 62 1012.6
20260903012448 85 0 2.0 4.0 0.00 0.00 0.00 62 1012.6
20260903011948 85 167 1.0 4.0 0.00 0.00 0.00 62 1012.5
20260903011446 85 175 1.0 4.0 0.00 0.00 0.00 61 1012.4
20260903010946 85 153 1.0 7.0 0.00 0.00 0.00 61 1012.4
20260903010445 86 166 2.0 7.0 0.00 0.00 0.00 61 1012.4
20260903005946 86 174 2.0 5.0 0.00 0.00 0.00 61 1012.4
20260903005445 87 181 1.0 5.0 0.00 0.00 0.00 61 1012.4
20260903004944 87 180 1.0 4.0 0.00 0.00 0.00 61 1012.4
20260903004445 87 155 1.0 2.0 0.00 0.00 0.00 60 1012.4
20260903003946 88 155 1.0 4.0 0.00 0.00 0.00 60 1012.4
20260903003443 88 155 2.0 5.0 0.00 0.00 0.00 59 1012.3
20260903002944 89 167 1.0 5.0 0.00 0.00 0.00 58 1012.4
20260903002445 89 157 1.0 4.0 0.00 0.00 0.00 58 1012.3
20260903001937 89 167 1.0 4.0 0.00 0.00 0.00 57 1012.4
20260903001432 90 160 0.0 4.0 0.00 0.00 0.00 57 1012.4
20260903000927 90 159 0.0 0.0 0.00 0.00 0.00 56 1012.5
20260903000420 91 159 0.0 0.0 0.00 0.00 0.00 56 1012.5
20260902235915 91 159 1.0 2.0 0.00 0.00 0.00 55 1012.5
20260902235407 91 157 1.0 5.0 0.00 0.00 0.00 55 1012.5
20260902234901 91 161 2.0 5.0 0.00 0.00 0.00 55 1012.5
20260902234400 92 157 2.0 4.0 0.00 0.00 0.00 54 1012.5
20260902233901 92 185 1.0 3.0 0.00 0.00 0.00 54 1012.4
20260902233403 92 150 2.0 5.0 0.00 0.00 0.00 54 1012.4
20260902232402 92 171 0.0 3.0 0.00 0.00 0.00 52 1012.5
20260902231901 92 163 1.0 2.0 0.00 0.00 0.00 51 1012.5
20260902230859 93 132 0.0 3.0 0.00 0.00 0.00 50 1012.5
20260902225401 94 152 0.0 3.0 0.00 0.00 0.00 49 1012.5
20260902224356 94 211 1.0 6.0 0.00 0.00 0.00 48 1012.5
20260902223859 95 224 0.0 4.0 0.00 0.00 0.00 47 1012.6
20260902222851 95 223 1.0 4.0 0.00 0.00 0.00 47 1012.6
20260902222351 94 157 1.0 4.0 0.00 0.00 0.00 46 1012.6
20260902221849 95 293 1.0 4.0 0.00 0.00 0.00 46 1012.6
20260902221348 95 244 1.0 4.0 0.00 0.00 0.00 45 1012.6
20260902220850 95 269 1.0 4.0 0.00 0.00 0.00 44 1012.5
20260902220348 95 229 2.0 4.0 0.00 0.00 0.00 44 1012.6
20260902215846 95 215 2.0 8.0 0.00 0.00 0.00 43 1012.6
20260902215350 95 269 2.0 8.0 0.00 0.00 0.00 45 1012.6
20260902214847 95 284 2.0 8.0 0.00 0.00 0.00 42 1012.6
20260902214349 96 255 2.0 8.0 0.00 0.00 0.00 43 1012.6
20260902213852 96 254 1.0 4.0 0.00 0.00 0.00 43 1012.6
20260902212848 95 257 2.0 7.0 0.00 0.00 0.00 45 1012.7
20260902212350 95 291 3.0 8.0 0.00 0.00 0.00 45 1012.7
20260902211848 95 270 3.0 9.0 0.00 0.00 0.00 44 1012.7
20260902211347 96 274 2.0 9.0 0.00 0.00 0.00 42 1012.7
20260902210847 96 259 3.0 8.0 0.00 0.00 0.00 42 1012.8
20260902205347 95 279 3.0 10.0 0.00 0.00 0.00 42 1012.9
20260902204846 96 273 2.0 9.0 0.00 0.00 0.00 41 1012.9
20260902204344 96 241 3.0 9.0 0.00 0.00 0.00 42 1012.9
20260902203848 95 289 3.0 9.0 0.00 0.00 0.00 42 1012.9
20260902203346 96 235 3.0 9.0 0.00 0.00 0.00 41 1012.9
20260902202843 96 255 3.0 8.0 0.00 0.00 0.00 42 1013.0
20260902202343 96 250 3.0 8.0 0.00 0.00 0.00 42 1013.0
20260902201843 95 271 3.0 8.0 0.00 0.00 0.00 43 1013.1
20260902201342 95 298 3.0 10.0 0.00 0.00 0.00 43 1013.1
20260902200846 96 221 3.0 10.0 0.00 0.00 0.00 45 1013.1
20260902200342 95 288 3.0 10.0 0.00 0.00 0.00 44 1013.2
20260902195843 94 255 3.0 8.0 0.00 0.00 0.00 43 1013.3
20260902195344 94 257 3.0 7.0 0.00 0.00 0.00 45 1013.3
20260902194844 95 273 4.0 11.0 0.00 0.00 0.00 42 1013.4
20260902194339 95 239 4.0 11.0 0.00 0.00 0.00 43 1013.5
20260902193841 95 243 5.0 10.0 0.00 0.00 0.00 43 1013.5
20260902193338 95 310 4.0 10.0 0.00 0.00 0.00 42 1013.5
20260902192340 95 219 3.0 8.0 0.00 0.00 0.00 44 1013.6
20260902191839 94 279 3.0 9.0 0.00 0.00 0.00 44 1013.7
20260902190839 93 280 3.0 10.0 0.00 0.00 0.00 44 1013.7
20260902185835 95 286 4.0 9.0 0.00 0.00 0.00 43 1013.8
20260902185336 96 279 3.0 10.0 0.00 0.00 0.00 42 1013.8
20260902184835 96 250 2.0 10.0 0.00 0.00 0.00 40 1013.7
20260902184335 96 238 3.0 11.0 0.00 0.00 0.00 45 1013.7
20260902183834 95 286 4.0 11.0 0.00 0.00 0.00 44 1013.7
20260902183337 94 288 4.0 11.0 0.00 0.00 0.00 43 1013.7
20260902182836 95 307 2.0 11.0 0.00 0.00 0.00 45 1013.7
20260902182334 96 231 2.0 7.0 0.00 0.00 0.00 44 1013.8
20260902181836 94 238 3.0 7.0 0.00 0.00 0.00 45 1013.8
20260902181338 94 277 3.0 8.0 0.00 0.00 0.00 44 1013.9
20260902180835 94 304 2.0 9.0 0.00 0.00 0.00 44 1013.9
20260902180336 95 244 3.0 9.0 0.00 0.00 0.00 44 1013.8
20260902175836 94 246 2.0 7.0 0.00 0.00 0.00 46 1013.9
20260902174835 93 175 4.0 11.0 0.00 0.00 0.00 47 1013.9
20260902174336 92 267 3.0 11.0 0.00 0.00 0.00 47 1014.0
20260902173835 93 279 2.0 8.0 0.00 0.00 0.00 47 1014.0
20260902173334 93 277 3.0 9.0 0.00 0.00 0.00 48 1014.0
20260902172836 93 240 2.0 9.0 0.00 0.00 0.00 46 1014.1
20260902172335 93 280 2.0 7.0 0.00 0.00 0.00 48 1014.1
20260902171836 93 251 3.0 10.0 0.00 0.00 0.00 47 1014.2
20260902170836 92 242 2.0 7.0 0.00 0.00 0.00 46 1014.2
20260902170339 92 155 2.0 5.0 0.00 0.00 0.00 49 1014.3
20260902165837 93 217 2.0 7.0 0.00 0.00 0.00 49 1014.3
20260902165334 91 231 3.0 7.0 0.00 0.00 0.00 49 1014.2
20260902164333 91 275 3.0 10.0 0.00 0.00 0.00 50 1014.2
20260902163824 89 237 4.0 10.0 0.00 0.00 0.00 50 1014.2
20260902163317 90 227 3.0 10.0 0.00 0.00 0.00 50 1014.3
20260902162307 90 252 3.0 9.0 0.00 0.00 0.00 50 1014.3
20260902161254 90 300 2.0 7.0 0.00 0.00 0.00 50 1014.4
20260902160748 89 234 3.0 8.0 0.00 0.00 0.00 51 1014.5
20260902160243 89 232 2.0 8.0 0.00 0.00 0.00 49 1014.4
20260902155737 89 199 0.0 6.0 0.00 0.00 0.00 50 1014.5
20260902155229 89 65 1.0 4.0 0.00 0.00 0.00 50 1014.4
20260902154723 89 236 2.0 7.0 0.00 0.00 0.00 50 1014.4
20260902153712 89 313 2.0 7.0 0.00 0.00 0.00 53 1014.5
20260902153205 88 257 2.0 8.0 0.00 0.00 0.00 53 1014.4
20260902152700 88 277 1.0 8.0 0.00 0.00 0.00 53 1014.4
20260902152156 88 254 1.0 4.0 0.00 0.00 0.00 52 1014.4
20260902151650 89 167 1.0 5.0 0.00 0.00 0.00 53 1014.3
20260902151145 87 274 2.0 4.0 0.00 0.00 0.00 55 1014.3
20260902150636 86 261 3.0 7.0 0.00 0.00 0.00 55 1014.4
20260902150129 86 178 2.0 7.0 0.00 0.00 0.00 55 1014.4
20260902145625 86 178 2.0 7.0 0.00 0.00 0.00 56 1014.5
20260902145118 85 279 2.0 8.0 0.00 0.00 0.00 56 1014.5
20260902144611 85 289 2.0 8.0 0.00 0.00 0.00 56 1014.4
20260902144104 85 255 2.0 5.0 0.00 0.00 0.00 57 1014.4
20260902143057 84 275 2.0 9.0 0.00 0.00 0.00 57 1014.3
20260902142556 84 199 1.0 6.0 0.00 0.00 0.00 58 1014.3
20260902141555 83 273 1.0 4.0 0.00 0.00 0.00 60 1014.3
20260902140053 83 199 1.0 8.0 0.00 0.00 0.00 60 1014.6
20260902135552 83 232 1.0 5.0 0.00 0.00 0.00 61 1014.6
20260902135050 83 163 1.0 5.0 0.00 0.00 0.00 60 1014.6
20260902134049 82 180 1.0 6.0 0.00 0.00 0.00 62 1014.6
20260902133549 81 221 1.0 6.0 0.00 0.00 0.00 62 1014.7
20260902132556 80 188 1.0 4.0 0.00 0.00 0.00 64 1014.6
20260902132049 79 141 0.0 3.0 0.00 0.00 0.00 65 1014.5
20260902131548 78 158 0.0 3.0 0.00 0.00 0.00 68 1014.6
20260902131050 77 192 1.0 5.0 0.00 0.00 0.00 70 1014.6
20260902130543 76 0 1.0 5.0 0.00 0.00 0.00 71 1014.7
20260902130037 76 0 1.0 3.0 0.00 0.00 0.00 71 1014.7
20260902125532 75 0 2.0 4.0 0.00 0.00 0.00 71 1014.7
20260902125025 75 0 2.0 6.0 0.00 0.00 0.00 71 1014.8
20260902124519 74 0 2.0 6.0 0.00 0.00 0.00 71 1014.8
20260902123507 74 0 2.0 6.0 0.00 0.00 0.00 71 1014.8
20260902123000 74 0 2.0 4.0 0.00 0.00 0.00 71 1014.8
20260902122456 73 0 2.0 4.0 0.00 0.00 0.00 71 1014.9
20260902121949 73 0 2.0 4.0 0.00 0.00 0.00 71 1014.9
20260902121447 73 0 1.0 3.0 0.00 0.00 0.00 71 1014.8
20260902120948 73 0 0.0 2.0 0.00 0.00 0.00 71 1014.9
20260902120446 73 0 1.0 3.0 0.00 0.00 0.00 71 1014.9
20260902115443 73 0 1.0 3.0 0.00 0.00 0.00 71 1014.8
20260902114940 72 0 1.0 3.0 0.00 0.00 0.00 71 1014.7
20260902114444 72 0 0.0 3.0 0.00 0.00 0.00 71 1014.7
20260902113941 72 0 0.0 0.0 0.00 0.00 0.00 71 1014.6
20260902113441 72 0 0.0 0.0 0.00 0.00 0.00 70 1014.7
20260902112940 72 0 0.0 0.0 0.00 0.00 0.00 70 1014.7
20260902111941 72 0 0.0 0.0 0.00 0.00 0.00 70 1014.5
20260902111439 72 0 0.0 0.0 0.00 0.00 0.00 70 1014.5
20260902110937 72 0 0.0 0.0 0.00 0.00 0.00 70 1014.6
20260902110436 72 0 0.0 0.0 0.00 0.00 0.00 70 1014.6
20260902105939 72 0 0.0 0.0 0.00 0.00 0.00 69 1014.6
20260902105433 73 0 0.0 0.0 0.00 0.00 0.00 69 1014.6
20260902104927 73 0 0.0 0.0 0.00 0.00 0.00 69 1014.6
20260902104419 73 0 0.0 0.0 0.00 0.00 0.00 69 1014.6
20260902103913 73 0 0.0 0.0 0.00 0.00 0.00 69 1014.6
20260902103409 73 0 0.0 0.0 0.00 0.00 0.00 69 1014.5
20260902102901 73 0 0.0 0.0 0.00 0.00 0.00 69 1014.6
20260902102356 73 0 0.0 0.0 0.00 0.00 0.00 69 1014.6
20260902101849 73 0 0.0 0.0 0.00 0.00 0.00 69 1014.6
20260902101346 73 0 0.0 0.0 0.00 0.00 0.00 69 1014.5
20260902100344 73 0 0.0 0.0 0.00 0.00 0.00 69 1014.6
20260902095346 73 0 0.0 0.0 0.00 0.00 0.00 69 1014.4
20260902094340 74 0 0.0 0.0 0.00 0.00 0.00 69 1014.2
20260902093839 74 0 0.0 0.0 0.00 0.00 0.00 68 1014.3
20260902093340 74 0 0.0 0.0 0.00 0.00 0.00 68 1014.1
20260902092335 74 0 0.0 0.0 0.00 0.00 0.00 68 1014.2
20260902091832 74 0 0.0 0.0 0.00 0.00 0.00 68 1014.2
20260902091336 74 0 0.0 0.0 0.00 0.00 0.00 68 1014.1
20260902090831 74 0 0.0 0.0 0.00 0.00 0.00 68 1014.1
20260902090326 74 0 0.0 0.0 0.00 0.00 0.00 68 1014.0
20260902085825 74 0 0.0 0.0 0.00 0.00 0.00 68 1014.0
20260902085325 75 0 0.0 0.0 0.00 0.00 0.00 68 1014.1
20260902084826 75 0 0.0 0.0 0.00 0.00 0.00 68 1014.1
20260902084322 75 0 0.0 0.0 0.00 0.00 0.00 68 1014.0
20260902083821 75 0 0.0 0.0 0.00 0.00 0.00 68 1014.1
20260902083323 75 0 0.0 0.0 0.00 0.00 0.00 68 1014.0
20260902082815 75 0 0.0 0.0 0.00 0.00 0.00 68 1014.0
20260902081803 75 0 0.0 0.0 0.00 0.00 0.00 68 1013.9
20260902081257 75 0 0.0 0.0 0.00 0.00 0.00 68 1013.8
20260902080753 75 0 0.0 0.0 0.00 0.00 0.00 68 1013.8
20260902080245 75 0 0.0 0.0 0.00 0.00 0.00 68 1013.9
20260902075741 76 0 0.0 0.0 0.00 0.00 0.00 68 1013.9
20260902075232 76 0 0.0 0.0 0.00 0.00 0.00 68 1013.9
20260902074727 76 0 0.0 0.0 0.00 0.00 0.00 68 1014.0
20260902074221 76 0 0.0 0.0 0.00 0.00 0.00 68 1014.1
20260902073714 76 0 0.0 0.0 0.00 0.00 0.00 68 1014.1
20260902072703 76 0 0.0 0.0 0.00 0.00 0.00 68 1014.0
20260902072157 76 0 0.0 0.0 0.00 0.00 0.00 68 1014.0
20260902071145 76 0 0.0 0.0 0.00 0.00 0.00 68 1014.1
20260902070640 76 0 0.0 0.0 0.00 0.00 0.00 69 1014.0
20260902070134 76 0 0.0 0.0 0.00 0.00 0.00 69 1014.1
20260902065626 76 0 0.0 0.0 0.00 0.00 0.00 69 1014.1
20260902065121 76 0 0.0 0.0 0.00 0.00 0.00 69 1014.1
20260902064616 77 0 0.0 0.0 0.00 0.00 0.00 69 1014.0
20260902063603 77 0 0.0 0.0 0.00 0.00 0.00 69 1014.0
20260902063058 77 0 0.0 0.0 0.00 0.00 0.00 69 1014.1
20260902062550 77 0 0.0 0.0 0.00 0.00 0.00 68 1014.1
20260902061539 77 0 0.0 4.0 0.00 0.00 0.00 68 1014.1
20260902061036 77 0 0.0 4.0 0.00 0.00 0.00 68 1014.2
20260902060528 77 0 0.0 0.0 0.00 0.00 0.00 68 1014.1
20260902060021 77 0 0.0 0.0 0.00 0.00 0.00 68 1014.1
20260902054503 78 0 0.0 0.0 0.00 0.00 0.00 68 1013.9
20260902053956 78 0 0.0 0.0 0.00 0.00 0.00 68 1013.9
20260902053452 78 182 0.0 0.0 0.00 0.00 0.00 69 1013.9
20260902052947 78 182 0.0 0.0 0.00 0.00 0.00 69 1014.0
20260902052439 78 0 0.0 4.0 0.00 0.00 0.00 69 1013.9
20260902051933 78 0 0.0 4.0 0.00 0.00 0.00 69 1013.9
20260902051429 78 171 1.0 3.0 0.00 0.00 0.00 69 1013.9
20260902050415 78 185 1.0 4.0 0.00 0.00 0.00 69 1013.9
20260902045911 78 188 1.0 4.0 0.00 0.00 0.00 69 1014.0
20260902044855 78 182 1.0 4.0 0.00 0.00 0.00 69 1013.9
20260902044351 78 177 2.0 5.0 0.00 0.00 0.00 68 1014.0
20260902043844 78 188 2.0 5.0 0.00 0.00 0.00 68 1014.0
20260902043338 78 167 2.0 6.0 0.00 0.00 0.00 68 1014.0
20260902042330 78 0 0.0 3.0 0.00 0.00 0.00 68 1014.0
20260902041820 78 0 0.0 0.0 0.00 0.00 0.00 68 1014.0
20260902041314 78 166 0.0 0.0 0.00 0.00 0.00 67 1014.0
20260902040809 78 166 0.0 0.0 0.00 0.00 0.00 67 1014.0
20260902040302 78 166 0.0 0.0 0.00 0.00 0.00 67 1014.1
20260902035756 79 166 0.0 0.0 0.00 0.00 0.00 67 1014.2
20260902035249 79 166 0.0 0.0 0.00 0.00 0.00 67 1014.2
20260902034744 79 166 0.0 0.0 0.00 0.00 0.00 67 1014.1
20260902034238 79 0 0.0 0.0 0.00 0.00 0.00 67 1014.1
20260902033732 79 167 0.0 0.0 0.00 0.00 0.00 67 1014.1
20260902033226 79 168 0.0 0.0 0.00 0.00 0.00 67 1014.1
20260902032215 79 172 0.0 5.0 0.00 0.00 0.00 67 1014.2
20260902031708 80 167 0.0 5.0 0.00 0.00 0.00 67 1014.1
20260902031202 80 0 0.0 0.0 0.00 0.00 0.00 66 1014.1
20260902030656 80 0 0.0 0.0 0.00 0.00 0.00 66 1014.2
20260902030149 80 0 0.0 0.0 0.00 0.00 0.00 66 1014.2
20260902025644 80 0 0.0 1.0 0.00 0.00 0.00 66 1014.1
20260902025138 80 0 0.0 1.0 0.00 0.00 0.00 65 1014.1
20260902024632 81 0 0.0 0.0 0.00 0.00 0.00 65 1014.1
20260902024125 81 0 0.0 0.0 0.00 0.00 0.00 65 1014.1